WXM80 ListenWXM80 Stop

You find our weather info also at:

UK Metoffice

WeatherCloud

Weather Underground

Northeastern Weather Network

AWEKAS

Citizen Weather Observer Program (CWOP)

HAMweather, WeatherForYou, PWS Weather


Weather Underground History page Text

Daily Summary for February 18, 2018 Units:  English    Metric   Both
« Previous Day
Next Day »
Daily Weekly Monthly Yearly Custom
  High: Low: Average:
Temperature: 46.1 °F 30.2 °F 37.4 °F
Dew Point: 34.2 °F 26.4 °F 30.6 °F
Humidity: 97 % 51 % 78 %
Wind Speed: 10.4 mph 0.0 mph 2.5 mph
Wind Gust: 15.0 mph - -
Wind:- - West
Pressure: 30.28 in 29.69 in -
Precipitation: 0.02 in    
Historical Graphs
 
 
Tabular Data for February 18, 2018
Time Temperature Dew Point Pressure Wind Wind Speed Wind Gust Humidity Rainfall Rate (Hourly)
00:00 33.0 °F 32.2 °F 29.75 in Calm     97 % 0.06 in
00:05 33.0 °F 32.2 °F 29.75 in Calm     97 % 0.05 in
00:10 33.0 °F 32.2 °F 29.74 in Calm     97 % 0.05 in
00:15 33.0 °F 32.2 °F 29.74 in Calm     97 % 0.04 in
00:20 33.0 °F 32.0 °F 29.73 in Calm     96 % 0.03 in
00:25 33.0 °F 32.2 °F 29.73 in Calm     97 % 0.04 in
00:30 33.0 °F 32.0 °F 29.73 in Calm     96 % 0.03 in
00:35 33.0 °F 32.0 °F 29.72 in Calm     96 % 0.03 in
00:40 33.0 °F 32.0 °F 29.72 in Calm     96 % 0.02 in
00:45 33.0 °F 32.2 °F 29.71 in Calm     97 % 0.02 in
00:50 33.0 °F 32.2 °F 29.71 in Calm     97 % 0.02 in
00:55 33.0 °F 32.2 °F 29.71 in Calm     97 % 0.02 in
01:00 33.0 °F 32.2 °F 29.71 in Calm     97 % 0.02 in
01:05 33.0 °F 32.2 °F 29.70 in Calm     97 % 0.02 in
01:11 33.0 °F 32.2 °F 29.70 in Calm     97 % 0.00 in
01:16 33.0 °F 32.2 °F 29.70 in Calm     97 % 0.00 in
01:21 33.0 °F 32.2 °F 29.70 in Calm     97 % 0.00 in
01:26 33.0 °F 32.2 °F 29.70 in Calm     97 % 0.00 in
01:31 33.0 °F 32.2 °F 29.70 in Calm     97 % 0.00 in
01:36 33.0 °F 32.2 °F 29.69 in Calm     97 % 0.00 in
01:41 33.0 °F 32.2 °F 29.69 in Calm     97 % 0.00 in
01:46 33.0 °F 32.3 °F 29.70 in Calm     97 % 0.00 in
01:51 33.1 °F 32.3 °F 29.70 in Calm     97 % 0.00 in
01:56 33.1 °F 32.3 °F 29.71 in Calm     97 % 0.01 in
02:01 33.1 °F 32.3 °F 29.70 in Calm     97 % 0.00 in
02:06 33.1 °F 32.3 °F 29.69 in Calm     97 % 0.00 in
02:11 33.2 °F 32.4 °F 29.70 in Calm     97 % 0.00 in
02:16 33.2 °F 32.4 °F 29.70 in Calm     97 % 0.00 in
02:21 33.2 °F 32.4 °F 29.71 in Calm     97 % 0.00 in
02:26 33.2 °F 32.4 °F 29.71 in Calm     97 % 0.00 in
02:31 33.2 °F 32.4 °F 29.70 in Calm     97 % 0.00 in
02:36 33.2 °F 32.4 °F 29.70 in Calm     97 % 0.00 in
02:41 33.2 °F 32.4 °F 29.69 in Calm     97 % 0.00 in
02:46 33.2 °F 32.4 °F 29.69 in Calm     97 % 0.00 in
02:51 33.3 °F 32.5 °F 29.69 in Calm     97 % 0.00 in
02:56 33.3 °F 32.5 °F 29.69 in Calm     97 % 0.00 in
03:01 33.2 °F 32.4 °F 29.69 in Calm     97 % 0.00 in
03:06 33.2 °F 32.4 °F 29.69 in Calm     97 % 0.00 in
03:11 33.3 °F 32.5 °F 29.70 in Calm     97 % 0.00 in
03:17 33.3 °F 32.5 °F 29.70 in Calm     97 % 0.00 in
03:22 33.3 °F 32.5 °F 29.70 in Calm   1.2 mph 97 % 0.00 in
03:27 33.4 °F 32.6 °F 29.71 in West 2.5 mph 4.6 mph 97 % 0.00 in
03:32 33.4 °F 32.6 °F 29.72 in WSW 2.0 mph 4.6 mph 97 % 0.00 in
03:37 33.4 °F 32.6 °F 29.72 in West 2.5 mph 5.8 mph 97 % 0.00 in
03:42 33.5 °F 32.7 °F 29.72 in West 0.6 mph 3.5 mph 97 % 0.00 in
03:47 33.5 °F 32.7 °F 29.72 in West 2.4 mph 6.9 mph 97 % 0.00 in
03:52 33.5 °F 32.7 °F 29.72 in West 3.4 mph 5.8 mph 97 % 0.00 in
03:57 33.5 °F 32.7 °F 29.72 in West 4.9 mph 7.0 mph 97 % 0.00 in
04:02 33.5 °F 32.7 °F 29.73 in WNW 0.5 mph 5.8 mph 97 % 0.00 in
04:07 33.5 °F 32.7 °F 29.73 in WSW 3.3 mph 6.9 mph 97 % 0.00 in
04:12 33.6 °F 32.8 °F 29.74 in WNW 5.0 mph 10.0 mph 97 % 0.00 in
04:17 33.6 °F 32.8 °F 29.73 in West 3.8 mph 5.8 mph 97 % 0.00 in
04:22 33.6 °F 32.8 °F 29.74 in WSW 4.8 mph 9.2 mph 97 % 0.00 in
04:27 33.6 °F 32.8 °F 29.74 in WNW 6.8 mph 11.5 mph 97 % 0.00 in
04:32 33.6 °F 32.8 °F 29.75 in WSW 3.5 mph 5.0 mph 97 % 0.00 in
04:37 33.6 °F 32.8 °F 29.75 in West 4.6 mph 11.5 mph 97 % 0.00 in
04:42 33.6 °F 32.8 °F 29.75 in West 3.2 mph 11.5 mph 97 % 0.00 in
04:48 33.6 °F 32.8 °F 29.75 in West 3.7 mph 10.4 mph 97 % 0.00 in
04:53 33.5 °F 32.7 °F 29.75 in West 3.5 mph 9.2 mph 97 % 0.00 in
04:58 33.5 °F 32.7 °F 29.76 in West 2.3 mph 11.5 mph 97 % 0.00 in
05:03 33.5 °F 32.7 °F 29.76 in West 2.7 mph 5.8 mph 97 % 0.00 in
05:08 33.5 °F 32.7 °F 29.77 in West 2.8 mph 4.6 mph 97 % 0.00 in
05:13 33.5 °F 32.7 °F 29.77 in WSW 4.4 mph 9.2 mph 97 % 0.00 in
05:18 33.5 °F 32.7 °F 29.77 in West 1.4 mph 3.5 mph 97 % 0.00 in
05:23 33.5 °F 32.7 °F 29.77 in WSW 4.6 mph 9.2 mph 97 % 0.00 in
05:28 33.5 °F 32.7 °F 29.77 in West 3.7 mph 8.0 mph 97 % 0.00 in
05:33 33.5 °F 32.7 °F 29.78 in West 2.9 mph 8.1 mph 97 % 0.00 in
05:38 33.5 °F 32.7 °F 29.78 in West 4.0 mph 7.0 mph 97 % 0.00 in
05:43 33.5 °F 32.7 °F 29.78 in WSW 7.3 mph 10.4 mph 97 % 0.00 in
05:48 33.5 °F 32.7 °F 29.79 in WSW 3.6 mph 8.1 mph 97 % 0.00 in
05:53 33.6 °F 32.8 °F 29.79 in WNW 3.3 mph 5.8 mph 97 % 0.00 in
05:58 33.6 °F 32.8 °F 29.80 in WNW 5.2 mph 8.0 mph 97 % 0.00 in
06:03 33.6 °F 32.8 °F 29.80 in WNW 2.6 mph 10.4 mph 97 % 0.00 in
06:09 33.7 °F 32.9 °F 29.81 in WNW 4.1 mph 12.7 mph 97 % 0.00 in
06:14 33.6 °F 32.8 °F 29.81 in WSW 4.1 mph 9.2 mph 97 % 0.00 in
06:19 33.6 °F 32.8 °F 29.82 in WSW 5.9 mph 9.2 mph 97 % 0.00 in
06:24 33.6 °F 32.8 °F 29.82 in NW 4.4 mph 7.0 mph 97 % 0.00 in
06:29 33.6 °F 32.6 °F 29.82 in WNW 3.7 mph 8.1 mph 96 % 0.00 in
06:34 33.6 °F 32.6 °F 29.82 in WSW 4.3 mph 12.7 mph 96 % 0.00 in
06:39 33.6 °F 32.6 °F 29.83 in WNW 3.8 mph 11.0 mph 96 % 0.00 in
06:44 33.6 °F 32.6 °F 29.83 in WNW 2.9 mph 5.0 mph 96 % 0.00 in
06:49 33.6 °F 32.6 °F 29.83 in WNW 2.4 mph 5.8 mph 96 % 0.00 in
06:54 33.6 °F 32.6 °F 29.84 in West 4.8 mph 6.9 mph 96 % 0.00 in
06:59 33.7 °F 32.7 °F 29.84 in WNW 4.5 mph 6.9 mph 96 % 0.00 in
07:04 33.7 °F 32.4 °F 29.84 in WNW 3.6 mph 10.4 mph 95 % 0.00 in
07:09 33.8 °F 32.5 °F 29.85 in WNW 6.0 mph 9.2 mph 95 % 0.00 in
07:14 33.9 °F 32.6 °F 29.86 in West 6.4 mph 10.4 mph 95 % 0.00 in
07:19 34.1 °F 32.6 °F 29.87 in NW 2.5 mph 9.2 mph 94 % 0.00 in
07:24 34.2 °F 32.7 °F 29.88 in West 6.8 mph 10.4 mph 94 % 0.00 in
07:29 34.3 °F 32.5 °F 29.88 in WNW 3.3 mph 10.0 mph 93 % 0.00 in
07:35 34.4 °F 32.6 °F 29.89 in WNW 3.6 mph 11.5 mph 93 % 0.00 in
07:40 34.4 °F 32.3 °F 29.90 in NW 6.5 mph 10.0 mph 92 % 0.00 in
07:45 34.5 °F 32.4 °F 29.90 in WNW 7.1 mph 15.0 mph 92 % 0.00 in
07:50 34.6 °F 32.2 °F 29.90 in SW 4.0 mph 9.2 mph 91 % 0.00 in
07:55 34.7 °F 32.3 °F 29.91 in NW 6.2 mph 9.2 mph 91 % 0.00 in
08:00 34.7 °F 32.1 °F 29.91 in WNW 5.6 mph 13.8 mph 90 % 0.00 in
08:05 34.8 °F 32.2 °F 29.91 in WNW 3.9 mph 6.9 mph 90 % 0.00 in
08:10 34.9 °F 32.0 °F 29.91 in NNW 3.9 mph 8.1 mph 89 % 0.00 in
08:15 35.1 °F 32.2 °F 29.91 in North 10.4 mph 13.8 mph 89 % 0.00 in
08:20 35.3 °F 32.4 °F 29.92 in NW 4.6 mph 10.4 mph 89 % 0.00 in
08:25 35.5 °F 32.3 °F 29.92 in NNW 4.1 mph 9.2 mph 88 % 0.00 in
08:30 35.6 °F 32.4 °F 29.92 in WNW 6.7 mph 11.0 mph 88 % 0.00 in
08:35 35.8 °F 32.3 °F 29.92 in West 4.5 mph 6.9 mph 87 % 0.00 in
08:40 36.0 °F 32.5 °F 29.92 in NW 3.0 mph 3.5 mph 87 % 0.00 in
08:45 36.2 °F 32.4 °F 29.93 in North 4.0 mph 9.2 mph 86 % 0.00 in
08:51 36.3 °F 32.2 °F 29.93 in WNW 3.5 mph 8.1 mph 85 % 0.00 in
08:56 36.7 °F 32.6 °F 29.93 in NW 3.0 mph 9.0 mph 85 % 0.00 in
09:01 36.9 °F 32.5 °F 29.94 in NNW 3.4 mph 9.2 mph 84 % 0.00 in
09:06 37.2 °F 32.8 °F 29.95 in WNW 4.3 mph 6.9 mph 84 % 0.00 in
09:11 37.5 °F 32.8 °F 29.95 in WNW 7.1 mph 10.4 mph 83 % 0.00 in
09:16 37.8 °F 33.1 °F 29.96 in WNW 4.6 mph 6.9 mph 83 % 0.00 in
09:21 38.0 °F 33.0 °F 29.96 in NNW 3.8 mph 9.2 mph 82 % 0.00 in
09:26 38.3 °F 33.0 °F 29.96 in WNW 3.5 mph 7.0 mph 81 % 0.00 in
09:31 38.3 °F 33.0 °F 29.95 in North 5.1 mph 8.1 mph 81 % 0.00 in
09:36 38.6 °F 33.9 °F 29.96 in NW 2.1 mph 6.0 mph 83 % 0.00 in
09:41 38.9 °F 34.2 °F 29.96 in NNW 0.5 mph 3.5 mph 83 % 0.00 in
09:46 39.1 °F 33.8 °F 29.97 in North 1.5 mph 4.6 mph 81 % 0.00 in
09:51 39.3 °F 34.0 °F 29.98 in NNW 3.5 mph 5.8 mph 81 % 0.00 in
09:56 39.5 °F 33.8 °F 29.98 in North 3.4 mph 8.1 mph 80 % 0.00 in
10:01 39.6 °F 33.3 °F 29.99 in NNE 7.0 mph 10.0 mph 78 % 0.00 in
10:06 39.5 °F 32.6 °F 29.99 in NNW 4.2 mph 9.2 mph 76 % 0.00 in
10:12 39.6 °F 32.3 °F 29.99 in NNW 4.3 mph 9.2 mph 75 % 0.00 in
10:17 39.8 °F 32.5 °F 29.99 in NNW 1.8 mph 6.9 mph 75 % 0.00 in
10:22 40.1 °F 32.5 °F 29.99 in North 2.5 mph 6.9 mph 74 % 0.00 in
10:27 40.4 °F 32.1 °F 30.00 in NNW 2.7 mph 5.8 mph 72 % 0.00 in
10:32 40.5 °F 31.8 °F 30.01 in West 3.7 mph 9.2 mph 71 % 0.00 in
10:37 40.7 °F 31.7 °F 30.02 in NNW 4.4 mph 9.2 mph 70 % 0.00 in
10:42 40.8 °F 31.4 °F 30.03 in North 5.3 mph 7.0 mph 69 % 0.00 in
10:47 40.9 °F 31.5 °F 30.02 in NNW 6.6 mph 11.5 mph 69 % 0.00 in
10:52 41.1 °F 32.1 °F 30.02 in NNW 5.1 mph 9.2 mph 70 % 0.00 in
10:57 41.4 °F 31.6 °F 30.02 in WNW 5.7 mph 10.4 mph 68 % 0.00 in
11:02 41.8 °F 32.0 °F 30.02 in WNW 5.4 mph 9.0 mph 68 % 0.00 in
11:07 42.1 °F 32.3 °F 30.04 in NNW 7.2 mph 12.0 mph 68 % 0.00 in
11:12 42.2 °F 31.6 °F 30.04 in NW 4.6 mph 8.1 mph 66 % 0.00 in
11:17 42.3 °F 32.1 °F 30.04 in NW 4.7 mph 6.9 mph 67 % 0.00 in
11:22 42.6 °F 32.0 °F 30.03 in North 4.0 mph 8.1 mph 66 % 0.00 in
11:27 42.8 °F 32.2 °F 30.03 in NW 3.5 mph 8.1 mph 66 % 0.00 in
11:32 43.2 °F 32.6 °F 30.04 in WNW 4.9 mph 8.1 mph 66 % 0.00 in
11:37 43.3 °F 32.3 °F 30.05 in West 4.3 mph 6.9 mph 65 % 0.00 in
11:42 43.2 °F 31.1 °F 30.06 in NW 5.2 mph 7.0 mph 62 % 0.00 in
11:47 43.3 °F 31.5 °F 30.06 in WNW 3.6 mph 4.0 mph 63 % 0.00 in
11:53 43.3 °F 31.1 °F 30.06 in NW 5.7 mph 10.4 mph 62 % 0.00 in
11:58 43.3 °F 31.5 °F 30.06 in WNW 4.7 mph 11.5 mph 63 % 0.00 in
12:03 43.3 °F 31.5 °F 30.06 in WNW 4.8 mph 8.1 mph 63 % 0.00 in
12:08 43.3 °F 30.7 °F 30.07 in NW 4.7 mph 8.1 mph 61 % 0.00 in
12:13 43.1 °F 30.1 °F 30.06 in North 4.7 mph 9.2 mph 60 % 0.00 in
12:18 43.1 °F 31.4 °F 30.06 in NNW 3.7 mph 6.0 mph 63 % 0.00 in
12:23 43.2 °F 29.8 °F 30.07 in WNW 0.7 mph 4.6 mph 59 % 0.00 in
12:28 43.6 °F 31.0 °F 30.08 in West 1.9 mph 4.0 mph 61 % 0.00 in
12:33 44.0 °F 30.2 °F 30.08 in NW 0.9 mph 3.5 mph 58 % 0.00 in
12:38 44.3 °F 30.9 °F 30.08 in NW 2.7 mph 6.0 mph 59 % 0.00 in
12:43 44.5 °F 30.6 °F 30.08 in WNW 3.7 mph 5.8 mph 58 % 0.00 in
12:48 44.8 °F 31.3 °F 30.08 in SW 3.6 mph 7.0 mph 59 % 0.00 in
12:53 45.0 °F 30.2 °F 30.08 in West 5.1 mph 8.1 mph 56 % 0.00 in
12:58 45.0 °F 29.3 °F 30.08 in WSW 5.2 mph 9.0 mph 54 % 0.00 in
13:03 45.1 °F 29.0 °F 30.08 in West 1.6 mph 4.6 mph 53 % 0.00 in
13:08 45.2 °F 29.5 °F 30.07 in NW 3.7 mph 5.0 mph 54 % 0.00 in
13:13 45.3 °F 30.1 °F 30.07 in WNW 5.2 mph 11.0 mph 55 % 0.00 in
13:18 45.4 °F 29.7 °F 30.07 in NNW 3.2 mph 8.1 mph 54 % 0.00 in
13:23 45.6 °F 30.8 °F 30.08 in WNW 4.0 mph 6.0 mph 56 % 0.00 in
13:28 45.6 °F 29.0 °F 30.08 in WNW 4.8 mph 9.2 mph 52 % 0.00 in
13:33 45.6 °F 29.0 °F 30.08 in WNW 5.8 mph 11.5 mph 52 % 0.00 in
13:39 45.7 °F 29.1 °F 30.07 in West 4.2 mph 8.1 mph 52 % 0.00 in
13:44 45.7 °F 29.5 °F 30.08 in SW 4.4 mph 10.4 mph 53 % 0.00 in
13:49 45.8 °F 29.2 °F 30.08 in West 5.6 mph 6.9 mph 52 % 0.00 in
13:54 45.8 °F 28.7 °F 30.09 in WNW 1.3 mph 4.6 mph 51 % 0.00 in
13:59 45.8 °F 28.7 °F 30.09 in WNW 4.4 mph 8.1 mph 51 % 0.00 in
14:04 45.9 °F 28.8 °F 30.08 in West 4.0 mph 8.1 mph 51 % 0.00 in
14:09 45.9 °F 29.2 °F 30.08 in West 3.0 mph 5.8 mph 52 % 0.00 in
14:14 46.0 °F 29.3 °F 30.09 in WNW 4.9 mph 11.5 mph 52 % 0.00 in
14:19 46.0 °F 29.3 °F 30.09 in WSW 4.3 mph 8.1 mph 52 % 0.00 in
14:24 46.1 °F 29.4 °F 30.09 in NW 3.2 mph 6.0 mph 52 % 0.00 in
14:29 46.0 °F 28.9 °F 30.09 in West 4.8 mph 7.0 mph 51 % 0.00 in
14:34 45.9 °F 28.8 °F 30.09 in NW 3.2 mph 6.0 mph 51 % 0.00 in
14:39 45.6 °F 28.5 °F 30.09 in WNW 3.3 mph 8.1 mph 51 % 0.00 in
14:44 45.5 °F 28.9 °F 30.09 in WNW 6.6 mph 12.7 mph 52 % 0.00 in
14:49 45.3 °F 28.2 °F 30.09 in West 1.9 mph 9.2 mph 51 % 0.00 in
14:54 45.1 °F 28.5 °F 30.09 in NW 5.3 mph 6.9 mph 52 % 0.00 in
14:59 45.0 °F 29.3 °F 30.10 in SW 4.9 mph 7.0 mph 54 % 0.00 in
15:04 44.8 °F 28.2 °F 30.10 in WNW 5.0 mph 10.4 mph 52 % 0.00 in
15:09 44.7 °F 29.1 °F 30.10 in West 4.0 mph 9.0 mph 54 % 0.00 in
15:14 44.5 °F 28.9 °F 30.09 in West 2.0 mph 4.6 mph 54 % 0.00 in
15:19 44.5 °F 28.9 °F 30.09 in NW 5.1 mph 9.2 mph 54 % 0.00 in
15:24 44.3 °F 28.2 °F 30.10 in WNW 3.3 mph 5.0 mph 53 % 0.00 in
15:30 44.2 °F 28.1 °F 30.10 in WNW 2.1 mph 5.8 mph 53 % 0.00 in
15:35 44.1 °F 28.0 °F 30.10 in WNW 5.5 mph 11.5 mph 53 % 0.00 in
15:40 44.1 °F 28.5 °F 30.10 in WNW 5.5 mph 11.5 mph 54 % 0.00 in
15:45 44.0 °F 28.4 °F 30.10 in WNW 5.0 mph 9.2 mph 54 % 0.00 in
15:50 43.9 °F 28.3 °F 30.10 in SW 4.5 mph 8.1 mph 54 % 0.00 in
15:55 43.8 °F 28.7 °F 30.11 in WNW 3.3 mph 5.8 mph 55 % 0.00 in
16:00 43.8 °F 28.7 °F 30.11 in NW 1.0 mph 3.5 mph 55 % 0.00 in
16:05 43.8 °F 28.2 °F 30.11 in WSW 1.1 mph 3.5 mph 54 % 0.00 in
16:10 43.7 °F 28.6 °F 30.11 in West 4.4 mph 8.0 mph 55 % 0.00 in
16:15 43.6 °F 28.9 °F 30.12 in WSW 5.2 mph 8.1 mph 56 % 0.00 in
16:20 43.5 °F 28.8 °F 30.12 in West 2.8 mph 5.8 mph 56 % 0.00 in
16:25 43.4 °F 28.7 °F 30.12 in WNW 4.1 mph 8.1 mph 56 % 0.00 in
16:30 43.3 °F 29.1 °F 30.12 in WNW 2.3 mph 5.8 mph 57 % 0.00 in
16:36 43.2 °F 29.4 °F 30.13 in West 3.0 mph 8.0 mph 58 % 0.00 in
16:41 43.0 °F 28.8 °F 30.13 in WSW 5.0 mph 9.0 mph 57 % 0.00 in
16:45 42.9 °F 28.7 °F 30.13 in WNW 3.1 mph 5.0 mph 57 % 0.00 in
16:51 42.8 °F 29.1 °F 30.13 in WNW 3.0 mph 8.0 mph 58 % 0.00 in
16:56 42.7 °F 28.9 °F 30.13 in WNW 2.0 mph 9.0 mph 58 % 0.00 in
17:01 42.5 °F 29.2 °F 30.14 in SW 2.2 mph 3.5 mph 59 % 0.00 in
17:06 42.4 °F 29.1 °F 30.14 in NW 4.6 mph 6.9 mph 59 % 0.00 in
17:11 42.3 °F 29.0 °F 30.15 in West 4.3 mph 9.2 mph 59 % 0.00 in
17:16 42.2 °F 29.3 °F 30.15 in SSW 2.3 mph 3.5 mph 60 % 0.00 in
17:21 42.0 °F 29.5 °F 30.16 in West 4.4 mph 8.1 mph 61 % 0.00 in
17:26 41.8 °F 29.3 °F 30.15 in WSW 4.2 mph 6.9 mph 61 % 0.00 in
17:31 41.6 °F 29.1 °F 30.17 in WSW 0.8 mph 2.3 mph 61 % 0.00 in
17:36 41.5 °F 29.4 °F 30.17 in WSW 1.2 mph 2.3 mph 62 % 0.00 in
17:41 41.4 °F 29.7 °F 30.17 in West 1.7 mph 5.8 mph 63 % 0.00 in
17:46 41.2 °F 29.5 °F 30.18 in West 1.4 mph 3.5 mph 63 % 0.00 in
17:51 41.0 °F 29.4 °F 30.17 in WSW 2.9 mph 4.6 mph 63 % 0.00 in
17:56 40.9 °F 29.7 °F 30.18 in WNW 0.7 mph 4.6 mph 64 % 0.00 in
18:01 40.7 °F 29.8 °F 30.18 in SW 1.1 mph 5.8 mph 65 % 0.00 in
18:06 40.5 °F 30.0 °F 30.18 in Calm   3.5 mph 66 % 0.00 in
18:11 40.3 °F 29.8 °F 30.18 in WNW 1.0 mph 3.0 mph 66 % 0.00 in
18:16 40.2 °F 29.7 °F 30.18 in Calm     66 % 0.00 in
18:22 40.0 °F 29.6 °F 30.19 in SW 2.0 mph 2.0 mph 66 % 0.00 in
18:27 39.8 °F 29.7 °F 30.19 in SW 0.6 mph 2.3 mph 67 % 0.00 in
18:32 39.7 °F 30.0 °F 30.19 in WSW 2.1 mph 5.8 mph 68 % 0.00 in
18:37 39.4 °F 30.1 °F 30.20 in SW 1.1 mph 3.5 mph 69 % 0.00 in
18:42 39.2 °F 29.9 °F 30.20 in Calm     69 % 0.00 in
18:47 38.9 °F 29.9 °F 30.20 in SW 0.2 mph 1.2 mph 70 % 0.00 in
18:52 38.7 °F 29.8 °F 30.20 in SW 0.3 mph 2.3 mph 70 % 0.00 in
18:57 38.5 °F 29.6 °F 30.21 in Calm     70 % 0.00 in
19:02 38.3 °F 29.7 °F 30.20 in Calm   1.2 mph 71 % 0.00 in
19:07 38.0 °F 29.4 °F 30.21 in Calm   1.2 mph 71 % 0.00 in
19:12 37.8 °F 29.2 °F 30.21 in Calm     71 % 0.00 in
19:17 37.6 °F 29.0 °F 30.21 in SW 1.9 mph 3.5 mph 71 % 0.00 in
19:22 37.3 °F 29.1 °F 30.21 in Calm     72 % 0.00 in
19:27 37.0 °F 28.8 °F 30.22 in Calm   1.2 mph 72 % 0.00 in
19:32 36.8 °F 29.0 °F 30.21 in Calm     73 % 0.00 in
19:37 36.6 °F 28.8 °F 30.21 in WSW 1.1 mph 1.2 mph 73 % 0.00 in
19:43 36.4 °F 28.6 °F 30.22 in WSW 1.3 mph 3.5 mph 73 % 0.00 in
19:48 36.2 °F 28.4 °F 30.22 in Calm     73 % 0.00 in
19:53 36.1 °F 28.6 °F 30.22 in WSW 1.1 mph 1.2 mph 74 % 0.00 in
19:58 36.0 °F 28.5 °F 30.22 in West 1.3 mph 5.8 mph 74 % 0.00 in
20:03 35.9 °F 28.4 °F 30.22 in WNW 0.8 mph 3.5 mph 74 % 0.00 in
20:08 35.9 °F 28.4 °F 30.24 in West 0.9 mph 3.5 mph 74 % 0.00 in
20:13 35.8 °F 28.6 °F 30.23 in West 0.2 mph 1.0 mph 75 % 0.00 in
20:18 35.7 °F 28.6 °F 30.24 in Calm   1.2 mph 75 % 0.00 in
20:23 35.7 °F 28.6 °F 30.24 in West 1.5 mph 3.5 mph 75 % 0.00 in
20:28 35.6 °F 28.5 °F 30.24 in Calm     75 % 0.00 in
20:33 35.6 °F 28.5 °F 30.24 in Calm     75 % 0.00 in
20:38 35.5 °F 28.7 °F 30.24 in West 1.6 mph 2.3 mph 76 % 0.00 in
20:43 35.3 °F 28.5 °F 30.24 in Calm     76 % 0.00 in
20:48 35.2 °F 28.4 °F 30.25 in West 1.6 mph 3.5 mph 76 % 0.00 in
20:53 35.1 °F 28.6 °F 30.25 in West 1.8 mph 3.5 mph 77 % 0.00 in
20:58 34.9 °F 28.4 °F 30.26 in Calm     77 % 0.00 in
21:03 34.7 °F 28.5 °F 30.25 in West 1.5 mph 2.3 mph 78 % 0.00 in
21:08 34.5 °F 28.3 °F 30.25 in Calm     78 % 0.00 in
21:14 34.3 °F 28.5 °F 30.26 in WSW 0.7 mph 3.0 mph 79 % 0.00 in
21:19 34.1 °F 28.3 °F 30.25 in SW 0.3 mph 2.3 mph 79 % 0.00 in
21:24 33.9 °F 28.1 °F 30.26 in Calm     79 % 0.00 in
21:29 33.8 °F 28.0 °F 30.26 in Calm     79 % 0.00 in
21:34 33.5 °F 28.0 °F 30.26 in Calm     80 % 0.00 in
21:39 33.3 °F 27.8 °F 30.26 in Calm     80 % 0.00 in
21:44 33.2 °F 27.7 °F 30.27 in Calm     80 % 0.00 in
21:49 32.9 °F 27.4 °F 30.27 in Calm     80 % 0.00 in
21:54 32.8 °F 27.3 °F 30.27 in Calm     80 % 0.00 in
21:59 32.5 °F 27.3 °F 30.27 in Calm     81 % 0.00 in
22:04 32.3 °F 27.1 °F 30.27 in Calm     81 % 0.00 in
22:09 32.1 °F 27.2 °F 30.27 in West 1.3 mph 2.3 mph 82 % 0.00 in
22:14 31.9 °F 27.0 °F 30.28 in Calm     82 % 0.00 in
22:19 31.7 °F 27.1 °F 30.27 in West 1.0 mph 2.3 mph 83 % 0.00 in
22:24 31.5 °F 26.9 °F 30.28 in Calm     83 % 0.00 in
22:29 31.4 °F 26.8 °F 30.28 in West 0.4 mph 2.3 mph 83 % 0.00 in
22:34 31.2 °F 26.9 °F 30.28 in Calm     84 % 0.00 in
22:39 31.1 °F 26.8 °F 30.28 in Calm   2.3 mph 84 % 0.00 in
22:44 30.9 °F 26.6 °F 30.27 in Calm     84 % 0.00 in
22:49 30.8 °F 26.8 °F 30.27 in Calm     85 % 0.00 in
22:55 30.7 °F 26.7 °F 30.27 in Calm     85 % 0.00 in
23:00 30.6 °F 26.6 °F 30.27 in Calm     85 % 0.00 in
23:05 30.5 °F 26.5 °F 30.28 in Calm     85 % 0.00 in
23:10 30.4 °F 26.4 °F 30.28 in Calm     85 % 0.00 in
23:15 30.3 °F 26.6 °F 30.27 in ENE 0.5 mph 1.2 mph 86 % 0.00 in
23:20 30.2 °F 26.8 °F 30.28 in East 0.4 mph 2.3 mph 87 % 0.00 in
23:25 30.3 °F 26.9 °F 30.27 in Calm     87 % 0.00 in
23:30 30.2 °F 26.8 °F 30.27 in Calm     87 % 0.00 in
23:35 30.2 °F 26.8 °F 30.27 in Calm     87 % 0.00 in
23:40 30.2 °F 26.8 °F 30.28 in East 0.3 mph 2.3 mph 87 % 0.00 in
23:45 30.2 °F 27.1 °F 30.28 in East 0.2 mph 2.0 mph 88 % 0.00 in
23:50 30.2 °F 27.1 °F 30.28 in Calm     88 % 0.00 in
23:55 30.3 °F 27.2 °F 30.28 in Calm   2.3 mph 88 % 0.00 in
Crab Meadow Weather
Compliments of Weather Underground - 3 mb

Script developed by  Jim McMurry - jmcmurry@mwt.net Adapted for the template by  Wim van der Kuil - Leuven-Template.eu

Astronomy: Neptune was discovered in 1846 (over 150 years ago). Since that time it has still yet to make a complete orbit around the sun, because one Neptune year lasts 165 Earth years!